[[{"header":{"parameterUnit":"m.s-1","parameterCategory":1,"la1":30.2991,"la2":30.254,"lo1":-89.0895,"lo2":-89.0444,"dx":0.0017,"dy":0.0017,"nx":28,"ny":28,"refTime":"2022-11-05T15:00:00:Z","depth":0,"parameterNumber":2,"parameterNumberName":"U-component_of_WINDS"},"data":[0,0,0,0,0,0,0,0,0,0,0,0,0,0,0,0,0,0,0,0,0,0,0,0,0,0,0,0,0,0,0,0,0,0,0,0,0,0,0,0,0,0,0,0,0,0,0,0,0,0,0,0,0,0,0,0,0,0,-1.1485,-1.1485,0,-1.1565,-1.1566,-1.1567,-1.159,-1.1589,-1.1589,-1.1588,-1.1671,-1.1673,-1.1676,0,0,0,0,0,0,0,0,0,0,0,0,0,-1.135,-1.1352,-1.1484,-1.1485,-1.1486,-1.1565,-1.1566,-1.1567,-1.159,-1.1589,-1.1589,-1.1588,-1.167,-1.1673,-1.1676,0,0,0,0,0,0,0,0,0,0,0,0,0,-1.1417,-1.1353,-1.1484,-1.1507,-1.151,-1.1565,-1.1566,-1.1567,-1.159,-1.1589,-1.1589,-1.1588,-1.1669,-1.1673,-1.1676,-1.1714,0,0,-1.1688,-1.169,0,0,0,0,0,0,0,0,-1.1413,-1.1422,-1.1503,-1.1506,-1.1509,-1.1567,-1.1549,-1.1617,-1.159,-1.156,-1.1588,-1.1588,-1.1637,-1.1643,-1.166,-1.1718,-1.1721,-1.1689,-1.1691,-1.1693,-1.1694,0,0,0,0,0,0,0,-1.1408,-1.1419,-1.1516,-1.1504,-1.1508,-1.1513,-1.1522,-1.1562,-1.1601,-1.1562,-1.1564,-1.1573,-1.1638,-1.1656,-1.1662,-1.1723,-1.1689,-1.1692,-1.1695,-1.1696,-1.1815,-1.1815,0,0,0,0,0,0,-1.14,-1.1415,-1.1514,-1.1519,-1.1458,-1.1516,-1.1526,-1.1549,-1.16,-1.1608,-1.1574,-1.1574,-1.1649,-1.1657,-1.1665,-1.1712,-1.1693,-1.1696,-1.1699,-1.1814,-1.1815,-1.1816,0,0,0,0,0,0,-1.1397,-1.1409,-1.1511,-1.1467,-1.1481,-1.1519,-1.1545,-1.1551,-1.1568,-1.1609,-1.1616,-1.1585,-1.1649,-1.1659,-1.1701,-1.1715,-1.1698,-1.1702,-1.1813,-1.1814,-1.1815,-1.1806,0,0,0,0,0,0,-1.1393,-1.1407,-1.1422,-1.1467,-1.1483,-1.1546,-1.1545,-1.1553,-1.1575,-1.1576,-1.1621,-1.1628,-1.165,-1.1695,-1.1705,-1.172,-1.1705,-1.1812,-1.1814,-1.1815,-1.1805,-1.1806,-1.1808,0,0,0,0,0,-1.1388,-1.1416,-1.1423,-1.1435,-1.1502,-1.1547,-1.1556,-1.158,-1.1576,-1.1591,-1.1617,-1.1627,-1.1712,-1.17,-1.1711,-1.1727,-1.1811,-1.1813,-1.1815,-1.1804,-1.1806,-1.1808,0,0,0,0,0,0,-1.1372,-1.1423,-1.143,-1.1474,-1.1506,-1.155,-1.157,-1.1581,-1.1614,-1.1614,-1.1642,-1.1652,-1.1692,-1.1714,-1.1699,-1.1765,-1.1762,-1.1766,-1.175,-1.1752,-1.1753,-1.1747,-1.1708,0,0,0,0,0,-1.1373,-1.1405,-1.1448,-1.1483,-1.1498,-1.1531,-1.1552,-1.1567,-1.1601,-1.1615,-1.1644,-1.1677,-1.1711,-1.1732,-1.1766,-1.1808,-1.1818,-1.1825,-1.1826,-1.1827,-1.183,-1.1853,-1.1856,-1.1822,-1.1822,-1.1822,0,0,-1.1377,-1.1409,-1.1427,-1.148,-1.1506,-1.1539,-1.1542,-1.1577,-1.1601,-1.162,-1.1662,-1.1684,-1.1722,-1.1764,-1.1784,-1.1784,-1.1842,-1.1829,-1.183,-1.1832,-1.1855,-1.1859,-1.1862,-1.1823,-1.1823,-1.1823,0,0,-1.1399,-1.1427,-1.1458,-1.1485,-1.1525,-1.1546,-1.1554,-1.1597,-1.1612,-1.1654,-1.1669,-1.1698,-1.1757,-1.1783,-1.1804,-1.1836,-1.1846,-1.1846,-1.1853,-1.1875,-1.1878,-1.188,-1.1891,-1.1895,-1.1849,-1.1849,-1.1849,0,-1.1399,-1.1448,-1.1473,-1.1506,-1.1529,-1.1548,-1.158,-1.1604,-1.1653,-1.1668,-1.1666,-1.1739,-1.1766,-1.1814,-1.1822,-1.1839,-1.1848,-1.1841,-1.1876,-1.1878,-1.1881,-1.1892,-1.1896,-1.1849,-1.1849,-1.1849,-1.1849,0,-1.1445,-1.1479,-1.1499,-1.1546,-1.1571,-1.1603,-1.1633,-1.1655,-1.1668,-1.169,-1.1732,-1.1765,-1.1806,-1.1818,-1.1832,-1.1868,-1.1867,-1.187,-1.1867,-1.1884,-1.1894,-1.1899,-1.1849,-1.1849,-1.1849,-1.1849,0,0,-1.146,-1.1519,-1.1526,-1.1547,-1.1592,-1.1619,-1.1652,-1.1691,-1.171,-1.1742,-1.177,-1.1819,-1.1822,-1.1846,-1.1863,-1.1882,-1.1905,-1.1883,-1.1884,-1.1885,-1.1946,-1.1943,-1.1947,-1.1911,-1.1912,-1.1913,-1.1943,0,-1.1488,-1.1547,-1.157,-1.1619,-1.165,-1.1668,-1.1697,-1.1728,-1.1749,-1.1778,-1.1802,-1.1835,-1.1837,-1.1852,-1.1872,-1.1897,-1.1917,-1.1896,-1.1937,-1.1938,-1.1927,-1.1953,-1.195,-1.1976,-1.1947,-1.1948,-1.1948,0,-1.1528,-1.1561,-1.1613,-1.1653,-1.1667,-1.1693,-1.173,-1.1758,-1.1793,-1.1807,-1.1834,-1.1849,-1.1884,-1.1878,-1.1926,-1.1911,-1.193,-1.1945,-1.1946,-1.1951,-1.1944,-1.1958,-1.1985,-1.1989,-1.1955,-1.1954,-1.1954,0,-1.1533,-1.159,-1.1629,-1.1646,-1.1695,-1.1712,-1.1733,-1.1767,-1.1789,-1.1822,-1.1836,-1.1873,-1.1893,-1.192,-1.1945,-1.1939,-1.1991,-1.1987,-1.2003,-1.2002,-1.2013,-1.2012,-1.2043,-1.2025,-1.2025,-1.2025,-1.2025,0,-1.1562,-1.1592,-1.1631,-1.1655,-1.1689,-1.1716,-1.1749,-1.1772,-1.1802,-1.1829,-1.1847,-1.1873,-1.1904,-1.1934,-1.1953,-1.199,-1.1999,-1.2011,-1.2015,-1.2009,-1.2007,-1.2021,-1.202,-1.2026,-1.2026,-1.2026,-1.2025,0,-1.1573,-1.16,-1.1643,-1.1685,-1.1697,-1.172,-1.1757,-1.178,-1.1802,-1.1836,-1.1846,-1.188,-1.1916,-1.1943,-1.199,-1.2003,-1.2041,-1.2047,-1.2029,-1.2032,-1.2045,-1.2043,-1.2087,-1.2093,-1.2071,-1.2071,-1.2071,0,-1.1589,-1.1613,-1.1658,-1.1678,-1.1699,-1.173,-1.1753,-1.178,-1.1802,-1.1843,-1.1861,-1.1898,-1.1929,-1.1985,-1.2014,-1.2049,-1.2055,-1.2068,-1.2061,-1.2053,-1.2055,-1.2053,-1.2055,-1.2069,-1.2069,-1.2069,-1.2069,0,-1.1615,-1.1627,-1.1659,-1.1695,-1.1721,-1.1751,-1.1781,-1.1796,-1.1828,-1.1853,-1.1889,-1.1913,-1.196,-1.1996,-1.2035,-1.2056,-1.2068,-1.2071,-1.2076,-1.207,-1.2059,-1.2064,-1.2031,-1.207,-1.207,-1.207,-1.207,-1.207,-1.1629,-1.1651,-1.1686,-1.172,-1.1745,-1.1773,-1.1797,-1.1821,-1.1852,-1.1893,-1.1907,-1.1944,-1.1978,-1.203,-1.2052,-1.2082,-1.2082,-1.209,-1.2092,-1.2093,-1.2092,-1.2054,-1.2089,-1.2089,-1.2089,-1.2089,-1.2089,0,-1.1655,-1.1678,-1.171,-1.1751,-1.1778,-1.1787,-1.182,-1.1842,-1.1875,-1.1906,-1.1935,-1.1977,-1.2012,-1.2044,-1.208,-1.2097,-1.2104,-1.2106,-1.2105,-1.2109,-1.209,-1.2082,-1.21,-1.21,-1.21,-1.21,-1.21,-1.21,-1.1672,-1.1709,-1.1725,-1.1775,-1.1798,-1.1835,-1.1853,-1.1879,-1.1903,-1.1949,-1.1978,-1.1998,-1.2029,-1.2068,-1.21,-1.2108,-1.2121,-1.2122,-1.2131,-1.2112,-1.2111,-1.2109,-1.2102,-1.2124,-1.2124,-1.2148,-1.2148,-1.2148]},{"header":{"parameterUnit":"m.s-1","parameterCategory":1,"la1":30.2991,"la2":30.254,"lo1":-89.0895,"lo2":-89.0444,"dx":0.0017,"dy":0.0017,"nx":28,"ny":28,"refTime":"2022-11-05T15:00:00:Z","depth":0,"parameterNumber":3,"parameterNumberName":"V-component_of_WINDS"},"data":[0,0,0,0,0,0,0,0,0,0,0,0,0,0,0,0,0,0,0,0,0,0,0,0,0,0,0,0,0,0,0,0,0,0,0,0,0,0,0,0,0,0,0,0,0,0,0,0,0,0,0,0,0,0,0,0,0,0,-0.3204,-0.3204,0,-0.3141,-0.314,-0.3139,-0.3117,-0.3117,-0.3117,-0.3117,-0.3051,-0.3049,-0.3047,0,0,0,0,0,0,0,0,0,0,0,0,0,-0.3304,-0.3302,-0.3204,-0.3203,-0.3203,-0.3141,-0.314,-0.3139,-0.3117,-0.3117,-0.3117,-0.3118,-0.3052,-0.305,-0.3047,0,0,0,0,0,0,0,0,0,0,0,0,0,-0.3253,-0.3302,-0.3204,-0.3184,-0.3182,-0.3141,-0.314,-0.3139,-0.3117,-0.3117,-0.3117,-0.3118,-0.3053,-0.305,-0.3047,-0.3021,0,0,-0.3038,-0.3037,0,0,0,0,0,0,0,0,-0.3256,-0.3249,-0.3188,-0.3185,-0.3183,-0.3137,-0.3151,-0.3099,-0.3117,-0.3141,-0.3117,-0.3118,-0.3079,-0.3074,-0.3062,-0.3018,-0.3016,-0.3038,-0.3036,-0.3034,-0.3034,0,0,0,0,0,0,0,-0.3259,-0.3252,-0.3179,-0.3187,-0.3184,-0.3177,-0.3171,-0.3141,-0.3109,-0.3139,-0.3137,-0.313,-0.3078,-0.3065,-0.306,-0.3015,-0.3038,-0.3035,-0.3033,-0.3032,-0.2946,-0.2945,0,0,0,0,0,0,-0.3266,-0.3255,-0.3181,-0.3177,-0.3221,-0.3175,-0.3168,-0.3151,-0.3109,-0.3103,-0.313,-0.3129,-0.3069,-0.3063,-0.3057,-0.3024,-0.3034,-0.3032,-0.303,-0.2946,-0.2946,-0.2945,0,0,0,0,0,0,-0.3269,-0.326,-0.3184,-0.3215,-0.3205,-0.3173,-0.3155,-0.315,-0.3136,-0.3102,-0.3097,-0.3122,-0.3069,-0.3062,-0.303,-0.3021,-0.303,-0.3028,-0.2947,-0.2946,-0.2945,-0.2957,0,0,0,0,0,0,-0.3272,-0.3261,-0.3252,-0.3215,-0.3204,-0.3158,-0.3155,-0.3148,-0.3131,-0.313,-0.3094,-0.3088,-0.3069,-0.3035,-0.3027,-0.3017,-0.3025,-0.2947,-0.2946,-0.2945,-0.2957,-0.2957,-0.2956,0,0,0,0,0,-0.3275,-0.3258,-0.3251,-0.3242,-0.3191,-0.3158,-0.3151,-0.313,-0.3131,-0.3121,-0.3099,-0.3089,-0.3024,-0.3032,-0.3023,-0.3012,-0.2948,-0.2947,-0.2946,-0.2958,-0.2957,-0.2956,0,0,0,0,0,0,-0.3293,-0.3253,-0.3245,-0.3215,-0.319,-0.3154,-0.3141,-0.313,-0.3104,-0.3104,-0.3079,-0.3071,-0.3041,-0.3024,-0.3034,-0.2985,-0.2985,-0.2982,-0.2997,-0.2996,-0.2996,-0.3,-0.3023,0,0,0,0,0,-0.3294,-0.3271,-0.3236,-0.3213,-0.3201,-0.3173,-0.3158,-0.3144,-0.3117,-0.3106,-0.3082,-0.3055,-0.3028,-0.3012,-0.2985,-0.2955,-0.2946,-0.2943,-0.2942,-0.2942,-0.294,-0.2921,-0.2919,-0.2941,-0.2941,-0.2941,0,0,-0.3295,-0.327,-0.3256,-0.3216,-0.3195,-0.3171,-0.3164,-0.3139,-0.312,-0.3102,-0.3071,-0.3052,-0.3021,-0.2989,-0.2974,-0.2974,-0.2931,-0.2941,-0.2941,-0.2938,-0.2919,-0.2917,-0.2915,-0.294,-0.2941,-0.2941,0,0,-0.3284,-0.3263,-0.3241,-0.322,-0.3188,-0.3169,-0.3164,-0.3129,-0.3116,-0.3084,-0.3069,-0.3047,-0.3002,-0.2979,-0.2962,-0.2942,-0.2931,-0.2934,-0.2931,-0.2913,-0.2911,-0.291,-0.2901,-0.2898,-0.2932,-0.2932,-0.2932,0,-0.3289,-0.3252,-0.3231,-0.3206,-0.3188,-0.317,-0.3147,-0.3127,-0.3088,-0.3076,-0.3076,-0.3018,-0.2996,-0.2959,-0.2954,-0.2941,-0.2933,-0.2938,-0.2913,-0.2911,-0.2909,-0.2901,-0.2898,-0.2932,-0.2932,-0.2932,-0.2932,0,-0.3259,-0.3234,-0.322,-0.3182,-0.3163,-0.3139,-0.3113,-0.3096,-0.3084,-0.3065,-0.3032,-0.3005,-0.2972,-0.2962,-0.295,-0.2922,-0.2923,-0.2918,-0.2918,-0.2908,-0.29,-0.2896,-0.2933,-0.2933,-0.2933,-0.2932,0,0,-0.3258,-0.3209,-0.3204,-0.3186,-0.3149,-0.3129,-0.3103,-0.3072,-0.3057,-0.303,-0.3008,-0.297,-0.2965,-0.2946,-0.2931,-0.2915,-0.2899,-0.2912,-0.2911,-0.2909,-0.2865,-0.2868,-0.2865,-0.2892,-0.2891,-0.289,-0.2867,0,-0.3241,-0.3196,-0.3175,-0.3139,-0.3114,-0.3097,-0.3074,-0.3049,-0.303,-0.3006,-0.2986,-0.2959,-0.2955,-0.2943,-0.2927,-0.2904,-0.2889,-0.2906,-0.2869,-0.2868,-0.2877,-0.286,-0.2864,-0.2843,-0.2864,-0.2863,-0.2863,0,-0.3216,-0.3189,-0.315,-0.3115,-0.3104,-0.3085,-0.3053,-0.3031,-0.3001,-0.2988,-0.2966,-0.2952,-0.2923,-0.2926,-0.2886,-0.2897,-0.2881,-0.2868,-0.2866,-0.2862,-0.2865,-0.2854,-0.2836,-0.2833,-0.2858,-0.2858,-0.2859,0,-0.3218,-0.3172,-0.3143,-0.3128,-0.3087,-0.3073,-0.3055,-0.3026,-0.3007,-0.2979,-0.2967,-0.2936,-0.2919,-0.2896,-0.2873,-0.2877,-0.2834,-0.2835,-0.2822,-0.2823,-0.2814,-0.2814,-0.2792,-0.2805,-0.2805,-0.2805,-0.2805,0,-0.3201,-0.3178,-0.3143,-0.3124,-0.3097,-0.3073,-0.3047,-0.3027,-0.3001,-0.2978,-0.2961,-0.2939,-0.2911,-0.2886,-0.2867,-0.2836,-0.2829,-0.2817,-0.2813,-0.2818,-0.282,-0.2807,-0.2807,-0.2804,-0.2804,-0.2805,-0.2805,0,-0.3198,-0.3174,-0.3141,-0.3104,-0.3094,-0.3075,-0.3043,-0.3024,-0.3005,-0.2976,-0.2967,-0.2936,-0.2905,-0.288,-0.284,-0.2828,-0.2795,-0.279,-0.2805,-0.2802,-0.279,-0.2792,-0.2758,-0.2752,-0.2771,-0.277,-0.277,0,-0.3189,-0.317,-0.3131,-0.3115,-0.3097,-0.307,-0.3051,-0.3027,-0.3008,-0.2972,-0.2957,-0.2925,-0.2898,-0.2849,-0.2822,-0.2791,-0.2785,-0.2775,-0.278,-0.2786,-0.2783,-0.2784,-0.2781,-0.2774,-0.2774,-0.2774,-0.2774,0,-0.3174,-0.3163,-0.3136,-0.3105,-0.3083,-0.3057,-0.3031,-0.3018,-0.2989,-0.2968,-0.2936,-0.2915,-0.2874,-0.2842,-0.2807,-0.2788,-0.2776,-0.2773,-0.2768,-0.2773,-0.2782,-0.2776,-0.2803,-0.2774,-0.2774,-0.2774,-0.2774,-0.2774,-0.3167,-0.3149,-0.3119,-0.3089,-0.3067,-0.3042,-0.3022,-0.3,-0.2973,-0.2938,-0.2925,-0.2892,-0.2861,-0.2813,-0.2794,-0.2767,-0.2766,-0.2759,-0.2757,-0.2756,-0.2756,-0.2787,-0.2761,-0.2761,-0.2761,-0.2761,-0.2761,0,-0.3151,-0.313,-0.3103,-0.3067,-0.3043,-0.3034,-0.3004,-0.2985,-0.2956,-0.2929,-0.2902,-0.2865,-0.2833,-0.2804,-0.2771,-0.2755,-0.2748,-0.2747,-0.2747,-0.2743,-0.2759,-0.2766,-0.2753,-0.2753,-0.2753,-0.2753,-0.2753,-0.2753,-0.3139,-0.3108,-0.3093,-0.305,-0.3029,-0.2997,-0.298,-0.2957,-0.2935,-0.2894,-0.2868,-0.2849,-0.282,-0.2784,-0.2755,-0.2747,-0.2735,-0.2735,-0.2725,-0.2741,-0.2742,-0.2743,-0.2749,-0.2732,-0.2732,-0.2711,-0.271,-0.271]}]]